Miscellaneous Local Product
Issued by NWS Hastings, NE

Home | Current Version | Previous Version | Graphics & Text | Print | Product List | Glossary On
Versions: 1 2 3 4 5 6 7 8 9 10 11 12 13 14 15 16 17 18 19 20 21 22 23 24 25 26 27 28 29 30 31 32 33 34 35 36 37 38 39 40 41 42 43 44 45 46 47 48 49 50
000
AXUS43 KGID 242002
MISGRI

GID CWA HOURLY WEATHER ROUNDUP
NATIONAL WEATHER SERVICE HASTINGS NE
300 PM CDT SUN JUL 24 2016

NOTE: "FAIR" INDICATES FEW OR NO CLOUDS BELOW 12,000 FEET WITH NO
SIGNIFICANT WEATHER AND/OR OBSTRUCTIONS TO VISIBILITY.

...SOUTH CENTRAL NEBRASKA...

CITY           SKY/WX    TMP DP  RH WIND       PRES   REMARKS
GRAND ISLAND   MOSUNNY   88  58  36 NE15      30.06F
HASTINGS       SUNNY     85  58  39 NE22G29   30.05F
KEARNEY        SUNNY     86  61  42 N12       30.08R
ORD            CLOUDY    83  59  44 E9        30.05F
YORK           CLOUDY    81  64  57 N17       30.04F
AURORA         PTSUNNY   84  64  50 N12G17    30.05F
LEXINGTON      SUNNY     84  56  38 E17       30.07F
HOLDREGE       SUNNY     85  57  38 NE16      30.07S
HEBRON         CLOUDY    80  67  64 NE12      30.03R

...NEBRASKA PANHANDLE...

CITY           SKY/WX    TMP DP  RH WIND       PRES   REMARKS
CHADRON        SUNNY     88  42  20 E8G23     30.11F
ALLIANCE       SUNNY     82  51  34 SE20      30.16F
SCOTTSBLUFF    SUNNY     85  54  34 E20G26    30.13F
SIDNEY         SUNNY     85  55  35 SE15G23   30.17F

...WESTERN AND NORTH CENTRAL NEBRASKA...

CITY           SKY/WX    TMP DP  RH WIND       PRES   REMARKS
VALENTINE      MOSUNNY   83  48  29 VRB5      30.12F
AINSWORTH      SUNNY     83  58  42 E5        30.12F
ONEILL         CLOUDY    79  52  38 NE6       30.10S
BROKEN BOW     CLOUDY    82  60  47 NE9       30.10F
IMPERIAL       MOSUNNY   86  54  33 SE24      30.07F
NORTH PLATTE   CLOUDY    81  60  48 E13       30.08F
MCCOOK         SUNNY     88  57  34 E20       30.06F

...EASTERN NEBRASKA...

CITY           SKY/WX    TMP DP  RH WIND       PRES   REMARKS
NORFOLK        CLOUDY    82  59  45 N10       30.06S
SO SIOUX CITY  CLOUDY    86  60  41 N13       30.01F
TEKAMAH        CLOUDY    84  65  52 NW9       30.01R
COLUMBUS       MOSUNNY   84  64  51 N9        30.06S
ALBION         CLOUDY    80  65  60 N6        30.08S
OMAHA EPPLEY   CLOUDY    84  68  58 N9        30.00R
OFFUTT AFB     CLOUDY    82  66  58 VRB5      30.00R
MILLARD        PTSUNNY   83  66  55 N7        30.01R
LINCOLN        CLOUDY    81  67  62 N7        30.04R
NEBRASKA CITY  CLOUDY    81  67  63 NW5       30.01R
BEATRICE       CLOUDY    78  66  66 N8        30.01R
FALLS CITY     MOSUNNY   82  76  81 N6        29.94S

...NORTHERN KANSAS...

CITY           SKY/WX    TMP DP  RH WIND       PRES   REMARKS
GOODLAND       SUNNY     91  57  31 SE17      30.10S
HILL CITY      SUNNY     88  68  51 NE10G18   30.04S HX  91
NORTON         CLEAR     88  48  25 E18G28    30.05F
SMITH CENTER   SUNNY     84  61  45 NE22      30.03S
BELOIT         PTSUNNY   81  70  69 N14       30.00R
HAYS           CLOUDY    93  66  40 NE16G23   29.98R HX  96
RUSSELL        SUNNY     93  67  42 NE13G20   29.96S HX  96
CONCORDIA      CLOUDY    80  70  71 E8        30.00S
SALINA         CLOUDY    93  69  45 NE14      29.95S HX  98
TOPEKA         CLOUDY    91  73  55 N3        29.94R HX  99



USA.gov is the U.S. government's official web portal to all federal, state and local government web resources and services.